This demonstration page uses our WeatherBlox Daily Observations layout. Learn more.

Left ArrowRight Arrow

Hourly Observations for May 28, 2015

Temp ( °F °C ) Dew Point ( °F °C ) Humidity (%) Winds ( mph kmh ) Pressure ( in mb ) Visibility ( mi km ) Precip ( " mm )
12:53 am 00:53 Clear 68 20 49 9.4 51 51 Calm 29.93 1014 10 16 0.00 0.00
1:53 am 01:53 Clear 66 18.9 48 8.9 52 52 Calm 29.93 1014 10 16 0.00 0.00
2:53 am 02:53 Clear 66 18.9 50 10 56 56 NNW 3 6 29.93 1014 10 16 0.00 0.00
3:53 am 03:53 Clear 64 17.8 51 10.6 63 63 Calm 29.93 1014 10 16 0.00 0.00
4:53 am 04:53 Clear 61 16.1 50 10 67 67 Calm 29.93 1014 10 16 0.00 0.00
5:53 am 05:53 Sunny 62 16.7 51 10.6 67 67 Calm 29.95 1014 10 16 0.00 0.00
6:53 am 06:53 Sunny 67 19.4 52 11.1 59 59 N 3 6 29.96 1015 10 16 0.00 0.00
7:53 am 07:53 Sunny 70 21.1 50 10 49 49 Calm 29.96 1015 10 16 0.00 0.00
8:53 am 08:53 Sunny 73 22.8 50 10 44 44 Calm 29.96 1015 10 16 0.00 0.00
9:53 am 09:53 Sunny 77 25 52 11.1 42 42 W 5 7 29.95 1014 10 16 0.00 0.00
10:53 am 10:53 Sunny 80 26.7 52 11.1 38 38 VRB 3 6 29.94 1014 10 16 0.00 0.00
11:53 am 11:53 Sunny 85 29.4 52 11.1 32 32 Calm 29.92 1013 10 16 0.00 0.00
12:53 pm 12:53 Sunny 89 31.7 50 10 26 26 WSW 7 11 29.90 1013 10 16 0.00 0.00
1:53 pm 13:53 Sunny 90 32.2 52 11.1 27 27 SSW 9 15 29.88 1012 10 16 0.00 0.00
2:53 pm 14:53 Sunny 92 33.3 50 10 24 24 undefined N/A 29.87 1011 10 16 0.00 0.00
3:53 pm 15:53 Sunny 94 34.4 49 9.4 21 21 SSE 13 20 29.85 1011 10 16 0.00 0.00
4:53 pm 16:53 Sunny 93 33.9 52 11.1 25 25 SSE 14 22 29.84 1011 10 16 0.00 0.00
5:53 pm 17:53 Sunny 92 33.3 51 10.6 25 25 SE 10 17 29.83 1010 10 16 0.00 0.00
6:53 pm 18:53 Sunny 91 32.8 51 10.6 26 26 S 12 19 29.83 1010 10 16 0.00 0.00
7:53 pm 19:53 Sunny 87 30.6 51 10.6 29 29 S 9 15 29.83 1010 10 16 0.00 0.00
8:53 pm 20:53 Clear 82 27.8 51 10.6 34 34 Calm 29.85 1011 10 16 0.00 0.00
9:53 pm 21:53 Clear 78 25.6 56 13.3 47 47 SSE 6 9 29.88 1012 10 16 0.00 0.00
10:53 pm 22:53 Clear 76 24.4 55 12.8 48 48 Calm 29.89 1012 10 16 0.00 0.00
11:53 pm 23:53 Clear 72 22.2 55 12.8 55 55 Calm 29.89 1012 10 16 0.00 0.00

Powered by AerisWeather